"Time","Value","Approval","myLocation"
"2023-05-06 00:00",4.65898002909668,"Approved","OW360"
"2023-05-06 01:00",4.65997936780849,"Approved","OW360"
"2023-05-06 02:00",4.6609787065203,"Approved","OW360"
"2023-05-06 03:00",4.66197804523211,"Approved","OW360"
"2023-05-06 04:00",4.66197738394392,"Approved","OW360"
"2023-05-06 05:00",4.66297672265573,"Approved","OW360"
"2023-05-06 06:00",4.66397606136754,"Approved","OW360"
"2023-05-06 07:00",4.66497540007935,"Approved","OW360"
"2023-05-06 08:00",4.66497473879117,"Approved","OW360"
"2023-05-06 09:00",4.66497407750298,"Approved","OW360"
"2023-05-06 10:00",4.66597341621479,"Approved","OW360"
"2023-05-06 11:00",4.6659727549266,"Approved","OW360"
"2023-05-06 12:00",4.66697209363841,"Approved","OW360"
"2023-05-06 13:00",4.66697143235022,"Approved","OW360"
"2023-05-06 14:00",4.66797077106203,"Approved","OW360"
"2023-05-06 15:00",4.66897010977384,"Approved","OW360"
"2023-05-06 16:00",4.66896944848565,"Approved","OW360"
"2023-05-06 17:00",4.66996878719746,"Approved","OW360"
"2023-05-06 18:00",4.67096812590927,"Approved","OW360"
"2023-05-06 19:00",4.67196746462108,"Approved","OW360"
"2023-05-06 20:00",4.67196680333289,"Approved","OW360"
"2023-05-06 21:00",4.6719661420447,"Approved","OW360"
"2023-05-06 22:00",4.67296548075651,"Approved","OW360"
"2023-05-06 23:00",4.67396481946832,"Approved","OW360"
"2023-05-07 00:00",4.67496415818013,"Approved","OW360"
"2023-05-07 01:00",4.67496349689195,"Approved","OW360"
"2023-05-07 02:00",4.67596283560376,"Approved","OW360"
"2023-05-07 03:00",4.67696217431557,"Approved","OW360"
"2023-05-07 04:00",4.67696151302738,"Approved","OW360"
"2023-05-07 05:00",4.67796085173919,"Approved","OW360"
"2023-05-07 06:00",4.677960190451,"Approved","OW360"
"2023-05-07 07:00",4.67895952916281,"Approved","OW360"
"2023-05-07 08:00",4.67995886787462,"Approved","OW360"
"2023-05-07 09:00",4.67995820658643,"Approved","OW360"
"2023-05-07 10:00",4.68095754529824,"Approved","OW360"
"2023-05-07 11:00",4.68195688401005,"Approved","OW360"
"2023-05-07 12:00",4.68195622272186,"Approved","OW360"
"2023-05-07 13:00",4.68295556143367,"Approved","OW360"
"2023-05-07 14:00",4.68395490014548,"Approved","OW360"
"2023-05-07 15:00",4.68495423885729,"Approved","OW360"
"2023-05-07 16:00",4.68595357756911,"Approved","OW360"
"2023-05-07 17:00",4.68695291628091,"Approved","OW360"
"2023-05-07 18:00",4.68695225499273,"Approved","OW360"
"2023-05-07 19:00",4.68695159370454,"Approved","OW360"
"2023-05-07 20:00",4.68795093241635,"Approved","OW360"
"2023-05-07 21:00",4.68795027112816,"Approved","OW360"
"2023-05-07 22:00",4.68894960983997,"Approved","OW360"
"2023-05-07 23:00",4.68894894855178,"Approved","OW360"
"2023-05-08 00:00",4.68994828726359,"Approved","OW360"
"2023-05-08 01:00",4.6929476259754,"Approved","OW360"
"2023-05-08 02:00",4.69194696468721,"Approved","OW360"
"2023-05-08 03:00",4.69394630339902,"Approved","OW360"
"2023-05-08 04:00",4.69394564211083,"Approved","OW360"
"2023-05-08 05:00",4.69394498082264,"Approved","OW360"
"2023-05-08 06:00",4.69494431953445,"Approved","OW360"
"2023-05-08 07:00",4.69494365824626,"Approved","OW360"
"2023-05-08 08:00",4.69594299695807,"Approved","OW360"
"2023-05-08 09:00",4.69594233566989,"Approved","OW360"
"2023-05-08 10:00",4.6969416743817,"Approved","OW360"
"2023-05-08 11:00",4.69794101309351,"Approved","OW360"
"2023-05-08 12:00",4.69794035180532,"Approved","OW360"
"2023-05-08 13:00",4.69893969051713,"Approved","OW360"
"2023-05-08 14:00",4.70393902922894,"Approved","OW360"
"2023-05-08 15:00",4.70093836794075,"Approved","OW360"
"2023-05-08 16:00",4.70093770665256,"Approved","OW360"
"2023-05-08 17:00",4.70093704536437,"Approved","OW360"
"2023-05-08 18:00",4.70193638407618,"Approved","OW360"
"2023-05-08 19:00",4.70593572278799,"Approved","OW360"
"2023-05-08 20:00",4.7029350614998,"Approved","OW360"
"2023-05-08 21:00",4.70293440021161,"Approved","OW360"
"2023-05-08 22:00",4.70393373892342,"Approved","OW360"
"2023-05-08 23:00",4.70493307763523,"Approved","OW360"
"2023-05-09 00:00",4.70593241634704,"Approved","OW360"
"2023-05-09 01:00",4.70693175505885,"Approved","OW360"
"2023-05-09 02:00",4.70693109377067,"Approved","OW360"
"2023-05-09 03:00",4.71293043248248,"Approved","OW360"
"2023-05-09 04:00",4.70992977119429,"Approved","OW360"
"2023-05-09 05:00",4.7109291099061,"Approved","OW360"
"2023-05-09 06:00",4.71192844861791,"Approved","OW360"
"2023-05-09 07:00",4.71292778732972,"Approved","OW360"
"2023-05-09 08:00",4.71292712604153,"Approved","OW360"
"2023-05-09 09:00",4.71492646475334,"Approved","OW360"
"2023-05-09 10:00",4.71592580346515,"Approved","OW360"
"2023-05-09 11:00",4.71692514217696,"Approved","OW360"
"2023-05-09 12:00",4.71792448088877,"Approved","OW360"
"2023-05-09 13:00",4.71892381960058,"Approved","OW360"
"2023-05-09 14:00",4.71992315831239,"Approved","OW360"
"2023-05-09 15:00",4.7229224970242,"Approved","OW360"
"2023-05-09 16:00",4.72092183573601,"Approved","OW360"
"2023-05-09 17:00",4.72192117444782,"Approved","OW360"
"2023-05-09 18:00",4.72292051315964,"Approved","OW360"
"2023-05-09 19:00",4.72391985187144,"Approved","OW360"
"2023-05-09 20:00",4.72391919058326,"Approved","OW360"
"2023-05-09 21:00",4.72491852929507,"Approved","OW360"
"2023-05-09 22:00",4.72491786800688,"Approved","OW360"
"2023-05-09 23:00",4.72691720671869,"Approved","OW360"
"2023-05-10 00:00",4.7269165454305,"Approved","OW360"
"2023-05-10 01:00",4.72791588414231,"Approved","OW360"
"2023-05-10 02:00",4.72891522285412,"Approved","OW360"
"2023-05-10 03:00",4.72991456156593,"Approved","OW360"
"2023-05-10 04:00",4.73091390027774,"Approved","OW360"
"2023-05-10 05:00",4.73091323898955,"Approved","OW360"
"2023-05-10 06:00",4.73291257770136,"Approved","OW360"
"2023-05-10 07:00",4.73291191641317,"Approved","OW360"
"2023-05-10 08:00",4.73391125512498,"Approved","OW360"
"2023-05-10 09:00",4.73391059383679,"Approved","OW360"
"2023-05-10 10:00",4.7349099325486,"Approved","OW360"
"2023-05-10 11:00",4.73590927126042,"Approved","OW360"
"2023-05-10 12:00",4.73790860997223,"Approved","OW360"
"2023-05-10 13:00",4.73790794868404,"Approved","OW360"
"2023-05-10 14:00",4.73890728739585,"Approved","OW360"
"2023-05-10 15:00",4.74090662610766,"Approved","OW360"
"2023-05-10 16:00",4.73990596481947,"Approved","OW360"
"2023-05-10 17:00",4.74390530353128,"Approved","OW360"
"2023-05-10 18:00",4.74190464224309,"Approved","OW360"
"2023-05-10 19:00",4.7419039809549,"Approved","OW360"
"2023-05-10 20:00",4.74390331966671,"Approved","OW360"
"2023-05-10 21:00",4.74390265837852,"Approved","OW360"
"2023-05-10 22:00",4.74390199709033,"Approved","OW360"
"2023-05-10 23:00",4.74490133580214,"Approved","OW360"
"2023-05-11 00:00",4.74490067451395,"Approved","OW360"
"2023-05-11 01:00",4.74590001322576,"Approved","OW360"
"2023-05-11 02:00",4.74689935193758,"Approved","OW360"
"2023-05-11 03:00",4.74889869064939,"Approved","OW360"
"2023-05-11 04:00",4.7498980293612,"Approved","OW360"
"2023-05-11 05:00",4.75089736807301,"Approved","OW360"
"2023-05-11 06:00",4.75189670678482,"Approved","OW360"
"2023-05-11 07:00",4.75389604549663,"Approved","OW360"
"2023-05-11 08:00",4.75389538420844,"Approved","OW360"
"2023-05-11 09:00",4.75589472292025,"Approved","OW360"
"2023-05-11 10:00",4.75589406163206,"Approved","OW360"
"2023-05-11 11:00",4.75789340034387,"Approved","OW360"
"2023-05-11 12:00",4.75889273905568,"Approved","OW360"
"2023-05-11 13:00",4.75989207776749,"Approved","OW360"
"2023-05-11 14:00",4.7608914164793,"Approved","OW360"
"2023-05-11 15:00",4.76189075519111,"Approved","OW360"
"2023-05-11 16:00",4.76289009390292,"Approved","OW360"
"2023-05-11 17:00",4.76388943261473,"Approved","OW360"
"2023-05-11 18:00",4.76488877132654,"Approved","OW360"
"2023-05-11 19:00",4.76488811003835,"Approved","OW360"
"2023-05-11 20:00",4.76588744875017,"Approved","OW360"
"2023-05-11 21:00",4.76688678746198,"Approved","OW360"
"2023-05-11 22:00",4.76788612617379,"Approved","OW360"
"2023-05-11 23:00",4.7678854648856,"Approved","OW360"
"2023-05-12 00:00",4.76888480359741,"Approved","OW360"
"2023-05-12 01:00",4.76888414230922,"Approved","OW360"
"2023-05-12 02:00",4.77088348102103,"Approved","OW360"
"2023-05-12 03:00",4.77088281973284,"Approved","OW360"
"2023-05-12 04:00",4.77288215844465,"Approved","OW360"
"2023-05-12 05:00",4.77388149715646,"Approved","OW360"
"2023-05-12 06:00",4.77488083586827,"Approved","OW360"
"2023-05-12 07:00",4.77688017458008,"Approved","OW360"
"2023-05-12 08:00",4.77887951329189,"Approved","OW360"
"2023-05-12 09:00",4.7788788520037,"Approved","OW360"
"2023-05-12 10:00",4.77987819071551,"Approved","OW360"
"2023-05-12 11:00",4.77987752942732,"Approved","OW360"
"2023-05-12 12:00",4.78187686813913,"Approved","OW360"
"2023-05-12 13:00",4.78287620685095,"Approved","OW360"
"2023-05-12 14:00",4.78387554556276,"Approved","OW360"
"2023-05-12 15:00",4.78487488427457,"Approved","OW360"
"2023-05-12 16:00",4.78587422298638,"Approved","OW360"
"2023-05-12 17:00",4.78687356169819,"Approved","OW360"
"2023-05-12 18:00",4.78787290041,"Approved","OW360"
"2023-05-12 19:00",4.78887223912181,"Approved","OW360"
"2023-05-12 20:00",4.79087157783362,"Approved","OW360"
"2023-05-12 21:00",4.79287091654543,"Approved","OW360"
"2023-05-12 22:00",4.79087025525724,"Approved","OW360"
"2023-05-12 23:00",4.79186959396905,"Approved","OW360"
"2023-05-13 00:00",4.79286893268086,"Approved","OW360"
"2023-05-13 01:00",4.79286827139267,"Approved","OW360"
"2023-05-13 02:00",4.79386761010448,"Approved","OW360"
"2023-05-13 03:00",4.79486694881629,"Approved","OW360"
"2023-05-13 04:00",4.7968662875281,"Approved","OW360"
"2023-05-13 05:00",4.79786562623991,"Approved","OW360"
"2023-05-13 06:00",4.79886496495173,"Approved","OW360"
"2023-05-13 07:00",4.79986430366354,"Approved","OW360"
"2023-05-13 08:00",4.80086364237535,"Approved","OW360"
"2023-05-13 09:00",4.80286298108716,"Approved","OW360"
"2023-05-13 10:00",4.80386231979897,"Approved","OW360"
"2023-05-13 11:00",4.80386165851078,"Approved","OW360"
"2023-05-13 12:00",4.80586099722259,"Approved","OW360"
"2023-05-13 13:00",4.8058603359344,"Approved","OW360"
"2023-05-13 14:00",4.80785967464621,"Approved","OW360"
"2023-05-13 15:00",4.80985901335802,"Approved","OW360"
"2023-05-13 16:00",4.81285835206983,"Approved","OW360"
"2023-05-13 17:00",4.80985769078164,"Approved","OW360"
"2023-05-13 18:00",4.81185702949345,"Approved","OW360"
"2023-05-13 19:00",4.81385636820526,"Approved","OW360"
"2023-05-13 20:00",4.81285570691707,"Approved","OW360"
"2023-05-13 21:00",4.81285504562889,"Approved","OW360"
"2023-05-13 22:00",4.8128543843407,"Approved","OW360"
"2023-05-13 23:00",4.81385372305251,"Approved","OW360"
"2023-05-14 00:00",4.81385306176432,"Approved","OW360"
"2023-05-14 01:00",4.81485240047613,"Approved","OW360"
"2023-05-14 02:00",4.81685173918794,"Approved","OW360"
"2023-05-14 03:00",4.81685107789975,"Approved","OW360"
"2023-05-14 04:00",4.81785041661156,"Approved","OW360"
"2023-05-14 05:00",4.81884975532337,"Approved","OW360"
"2023-05-14 06:00",4.82084909403518,"Approved","OW360"
"2023-05-14 07:00",4.82084843274699,"Approved","OW360"
"2023-05-14 08:00",4.8218477714588,"Approved","OW360"
"2023-05-14 09:00",4.82284711017061,"Approved","OW360"
"2023-05-14 10:00",4.82384644888242,"Approved","OW360"
"2023-05-14 11:00",4.82484578759423,"Approved","OW360"
"2023-05-14 12:00",4.82584512630604,"Approved","OW360"
"2023-05-14 13:00",4.82584446501785,"Approved","OW360"
"2023-05-14 14:00",4.82784380372967,"Approved","OW360"
"2023-05-14 15:00",4.82884314244148,"Approved","OW360"
"2023-05-14 16:00",4.82984248115329,"Approved","OW360"
"2023-05-14 17:00",4.8288418198651,"Approved","OW360"
"2023-05-14 18:00",4.83084115857691,"Approved","OW360"
"2023-05-14 19:00",4.83084049728872,"Approved","OW360"
"2023-05-14 20:00",4.83183983600053,"Approved","OW360"
"2023-05-14 21:00",4.83183917471234,"Approved","OW360"
"2023-05-14 22:00",4.83283851342415,"Approved","OW360"
"2023-05-14 23:00",4.83283785213596,"Approved","OW360"
"2023-05-15 00:00",4.83483719084777,"Approved","OW360"
"2023-05-15 01:00",4.83683652955958,"Approved","OW360"
"2023-05-15 02:00",4.83683586827139,"Approved","OW360"
"2023-05-15 03:00",4.8388352069832,"Approved","OW360"
"2023-05-15 04:00",4.83983454569501,"Approved","OW360"
"2023-05-15 05:00",4.84083388440682,"Approved","OW360"
"2023-05-15 06:00",4.84183322311863,"Approved","OW360"
"2023-05-15 07:00",4.84183256183045,"Approved","OW360"
"2023-05-15 08:00",4.84283190054226,"Approved","OW360"
"2023-05-15 09:00",4.84383123925407,"Approved","OW360"
"2023-05-15 10:00",4.84483057796588,"Approved","OW360"
"2023-05-15 11:00",4.84582991667769,"Approved","OW360"
"2023-05-15 12:00",4.8468292553895,"Approved","OW360"
"2023-05-15 13:00",4.84782859410131,"Approved","OW360"
"2023-05-15 14:00",4.85082793281312,"Approved","OW360"
"2023-05-15 15:00",4.84982727152493,"Approved","OW360"
"2023-05-15 16:00",4.85082661023674,"Approved","OW360"
"2023-05-15 17:00",4.85282594894855,"Approved","OW360"
"2023-05-15 18:00",4.85282528766036,"Approved","OW360"
"2023-05-15 19:00",4.85482462637217,"Approved","OW360"
"2023-05-15 20:00",4.85382396508398,"Approved","OW360"
"2023-05-15 21:00",4.85482330379579,"Approved","OW360"
"2023-05-15 22:00",4.85582264250761,"Approved","OW360"
"2023-05-15 23:00",4.85682198121942,"Approved","OW360"
"2023-05-16 00:00",4.85782131993123,"Approved","OW360"
"2023-05-16 01:00",4.85882065864304,"Approved","OW360"
"2023-05-16 02:00",4.85981999735485,"Approved","OW360"
"2023-05-16 03:00",4.86081933606666,"Approved","OW360"
"2023-05-16 04:00",4.86381867477847,"Approved","OW360"
"2023-05-16 05:00",4.86881801349028,"Approved","OW360"
"2023-05-16 06:00",4.86681735220209,"Approved","OW360"
"2023-05-16 07:00",4.8668166909139,"Approved","OW360"
"2023-05-16 08:00",4.86881602962571,"Approved","OW360"
"2023-05-16 09:00",4.87081536833752,"Approved","OW360"
"2023-05-16 10:00",4.87181470704933,"Approved","OW360"
"2023-05-16 11:00",4.87281404576114,"Approved","OW360"
"2023-05-16 12:00",4.87381338447295,"Approved","OW360"
"2023-05-16 13:00",4.87481272318476,"Approved","OW360"
"2023-05-16 14:00",4.87881206189657,"Approved","OW360"
"2023-05-16 15:00",4.87781140060839,"Approved","OW360"
"2023-05-16 16:00",4.8818107393202,"Approved","OW360"
"2023-05-16 17:00",4.88081007803201,"Approved","OW360"
"2023-05-16 18:00",4.88480941674382,"Approved","OW360"
"2023-05-16 19:00",4.88280875545563,"Approved","OW360"
"2023-05-16 20:00",4.88280809416744,"Approved","OW360"
"2023-05-16 21:00",4.88280743287925,"Approved","OW360"
"2023-05-16 22:00",4.88380677159106,"Approved","OW360"
"2023-05-16 23:00",4.88580611030287,"Approved","OW360"
"2023-05-17 00:00",4.88480544901468,"Approved","OW360"
"2023-05-17 01:00",4.88880478772649,"Approved","OW360"
"2023-05-17 02:00",4.8878041264383,"Approved","OW360"
"2023-05-17 03:00",4.88880346515011,"Approved","OW360"
"2023-05-17 04:00",4.88980280386192,"Approved","OW360"
"2023-05-17 05:00",4.89180214257373,"Approved","OW360"
"2023-05-17 06:00",4.89280148128554,"Approved","OW360"
"2023-05-17 07:00",4.89380081999735,"Approved","OW360"
"2023-05-17 08:00",4.89480015870917,"Approved","OW360"
"2023-05-17 09:00",4.89479949742098,"Approved","OW360"
"2023-05-17 10:00",4.89579883613279,"Approved","OW360"
"2023-05-17 11:00",4.8967981748446,"Approved","OW360"
"2023-05-17 12:00",4.89779751355641,"Approved","OW360"
"2023-05-17 13:00",4.89879685226822,"Approved","OW360"
"2023-05-17 14:00",4.90079619098003,"Approved","OW360"
"2023-05-17 15:00",4.90379552969184,"Approved","OW360"
"2023-05-17 16:00",4.90179486840365,"Approved","OW360"
"2023-05-17 17:00",4.90179420711546,"Approved","OW360"
"2023-05-17 18:00",4.90379354582727,"Approved","OW360"
"2023-05-17 19:00",4.90379288453908,"Approved","OW360"
"2023-05-17 20:00",4.90479222325089,"Approved","OW360"
"2023-05-17 21:00",4.9047915619627,"Approved","OW360"
"2023-05-17 22:00",4.90579090067451,"Approved","OW360"
"2023-05-17 23:00",4.90579023938632,"Approved","OW360"
"2023-05-18 00:00",4.90878957809814,"Approved","OW360"
"2023-05-18 01:00",4.90778891680995,"Approved","OW360"
"2023-05-18 02:00",4.90878825552176,"Approved","OW360"
"2023-05-18 03:00",4.90978759423357,"Approved","OW360"
"2023-05-18 04:00",4.91078693294538,"Approved","OW360"
"2023-05-18 05:00",4.91378627165719,"Approved","OW360"
"2023-05-18 06:00",4.913785610369,"Approved","OW360"
"2023-05-18 07:00",4.91578494908081,"Approved","OW360"
"2023-05-18 08:00",4.91578428779262,"Approved","OW360"
"2023-05-18 09:00",4.91678362650443,"Approved","OW360"
"2023-05-18 10:00",4.91778296521624,"Approved","OW360"
"2023-05-18 11:00",4.91878230392805,"Approved","OW360"
"2023-05-18 12:00",4.92078164263986,"Approved","OW360"
"2023-05-18 13:00",4.92178098135167,"Approved","OW360"
"2023-05-18 14:00",4.92278032006348,"Approved","OW360"
"2023-05-18 15:00",4.92477965877529,"Approved","OW360"
"2023-05-18 16:00",4.9257789974871,"Approved","OW360"
"2023-05-18 17:00",4.92677833619892,"Approved","OW360"
"2023-05-18 18:00",4.92777767491073,"Approved","OW360"
"2023-05-18 19:00",4.92977701362254,"Approved","OW360"
"2023-05-18 20:00",4.93077635233435,"Approved","OW360"
"2023-05-18 21:00",4.93077569104616,"Approved","OW360"
"2023-05-18 22:00",4.93277502975797,"Approved","OW360"
"2023-05-18 23:00",4.93377436846978,"Approved","OW360"
"2023-05-19 00:00",4.93477370718159,"Approved","OW360"
"2023-05-19 01:00",4.9357730458934,"Approved","OW360"
"2023-05-19 02:00",4.93677238460521,"Approved","OW360"
"2023-05-19 03:00",4.93877172331702,"Approved","OW360"
"2023-05-19 04:00",4.94177106202883,"Approved","OW360"
"2023-05-19 05:00",4.94177040074064,"Approved","OW360"
"2023-05-19 06:00",4.94276973945245,"Approved","OW360"
"2023-05-19 07:00",4.94676907816426,"Approved","OW360"
"2023-05-19 08:00",4.94576841687608,"Approved","OW360"
"2023-05-19 09:00",4.94576775558789,"Approved","OW360"
"2023-05-19 10:00",4.9477670942997,"Approved","OW360"
"2023-05-19 11:00",4.94876643301151,"Approved","OW360"
"2023-05-19 12:00",4.95076577172332,"Approved","OW360"
"2023-05-19 13:00",4.95176511043513,"Approved","OW360"
"2023-05-19 14:00",4.95376444914694,"Approved","OW360"
"2023-05-19 15:00",4.95476378785875,"Approved","OW360"
"2023-05-19 16:00",4.95776312657056,"Approved","OW360"
"2023-05-19 17:00",4.95676246528237,"Approved","OW360"
"2023-05-19 18:00",4.95676180399418,"Approved","OW360"
"2023-05-19 19:00",4.95776114270599,"Approved","OW360"
"2023-05-19 20:00",4.9587604814178,"Approved","OW360"
"2023-05-19 21:00",4.95975982012961,"Approved","OW360"
"2023-05-19 22:00",4.96075915884142,"Approved","OW360"
"2023-05-19 23:00",4.96075849755323,"Approved","OW360"
"2023-05-20 00:00",4.96175783626504,"Approved","OW360"
"2023-05-20 01:00",4.96175717497685,"Approved","OW360"
"2023-05-20 02:00",4.96375651368867,"Approved","OW360"
"2023-05-20 03:00",4.96475585240048,"Approved","OW360"
"2023-05-20 04:00",4.96675519111229,"Approved","OW360"
"2023-05-20 05:00",4.9677545298241,"Approved","OW360"
"2023-05-20 06:00",4.96875386853591,"Approved","OW360"
"2023-05-20 07:00",4.96975320724772,"Approved","OW360"
"2023-05-20 08:00",4.97175254595953,"Approved","OW360"
"2023-05-20 09:00",4.97175188467134,"Approved","OW360"
"2023-05-20 10:00",4.97375122338315,"Approved","OW360"
"2023-05-20 11:00",4.97475056209496,"Approved","OW360"
"2023-05-20 12:00",4.97574990080677,"Approved","OW360"
"2023-05-20 13:00",4.97774923951858,"Approved","OW360"
"2023-05-20 14:00",4.97874857823039,"Approved","OW360"
"2023-05-20 15:00",4.9807479169422,"Approved","OW360"
"2023-05-20 16:00",4.98074725565401,"Approved","OW360"
"2023-05-20 17:00",4.98374659436583,"Approved","OW360"
"2023-05-20 18:00",4.98874593307764,"Approved","OW360"
"2023-05-20 19:00",4.98474527178945,"Approved","OW360"
"2023-05-20 20:00",4.98474461050126,"Approved","OW360"
"2023-05-20 21:00",4.98574394921307,"Approved","OW360"
"2023-05-20 22:00",4.98574328792488,"Approved","OW360"
"2023-05-20 23:00",4.98874262663669,"Approved","OW360"
"2023-05-21 00:00",4.9877419653485,"Approved","OW360"
"2023-05-21 01:00",4.98874130406031,"Approved","OW360"
"2023-05-21 02:00",4.98974064277212,"Approved","OW360"
"2023-05-21 03:00",4.99073998148393,"Approved","OW360"
"2023-05-21 04:00",4.99273932019574,"Approved","OW360"
"2023-05-21 05:00",4.99373865890755,"Approved","OW360"
"2023-05-21 06:00",4.99473799761936,"Approved","OW360"
"2023-05-21 07:00",4.99573733633117,"Approved","OW360"
"2023-05-21 08:00",4.99673667504298,"Approved","OW360"
"2023-05-21 09:00",4.99873601375479,"Approved","OW360"
"2023-05-21 10:00",4.9997353524666,"Approved","OW360"
"2023-05-21 11:00",5.00073469117842,"Approved","OW360"
"2023-05-21 12:00",5.00273402989023,"Approved","OW360"
"2023-05-21 13:00",5.00373336860204,"Approved","OW360"
"2023-05-21 14:00",5.00473270731385,"Approved","OW360"
"2023-05-21 15:00",5.00573204602566,"Approved","OW360"
"2023-05-21 16:00",5.00973138473747,"Approved","OW360"
"2023-05-21 17:00",5.00773072344928,"Approved","OW360"
"2023-05-21 18:00",5.00873006216109,"Approved","OW360"
"2023-05-21 19:00",5.0097294008729,"Approved","OW360"
"2023-05-21 20:00",5.01072873958471,"Approved","OW360"
"2023-05-21 21:00",5.01172807829652,"Approved","OW360"
"2023-05-21 22:00",5.01272741700833,"Approved","OW360"
"2023-05-21 23:00",5.01572675572014,"Approved","OW360"
"2023-05-22 00:00",5.01372609443195,"Approved","OW360"
"2023-05-22 01:00",5.01472543314376,"Approved","OW360"
"2023-05-22 02:00",5.01572477185557,"Approved","OW360"
"2023-05-22 03:00",5.02172411056739,"Approved","OW360"
"2023-05-22 04:00",5.0187234492792,"Approved","OW360"
"2023-05-22 05:00",5.01972278799101,"Approved","OW360"
"2023-05-22 06:00",5.02172212670282,"Approved","OW360"
"2023-05-22 07:00",5.02172146541463,"Approved","OW360"
"2023-05-22 08:00",5.02272080412644,"Approved","OW360"
"2023-05-22 09:00",5.02372014283825,"Approved","OW360"
"2023-05-22 10:00",5.02471948155006,"Approved","OW360"
"2023-05-22 11:00",5.02571882026187,"Approved","OW360"
"2023-05-22 12:00",5.02671815897368,"Approved","OW360"
"2023-05-22 13:00",5.02771749768549,"Approved","OW360"
"2023-05-22 14:00",5.0287168363973,"Approved","OW360"
"2023-05-22 15:00",5.03071617510911,"Approved","OW360"
"2023-05-22 16:00",5.03271551382092,"Approved","OW360"
"2023-05-22 17:00",5.03271485253273,"Approved","OW360"
"2023-05-22 18:00",5.03371419124454,"Approved","OW360"
"2023-05-22 19:00",5.03471352995635,"Approved","OW360"
"2023-05-22 20:00",5.03671286866817,"Approved","OW360"
"2023-05-22 21:00",5.03771220737998,"Approved","OW360"
"2023-05-22 22:00",5.03771154609179,"Approved","OW360"
"2023-05-22 23:00",5.0387108848036,"Approved","OW360"
"2023-05-23 00:00",5.03971022351541,"Approved","OW360"
"2023-05-23 01:00",5.04270956222722,"Approved","OW360"
"2023-05-23 02:00",5.04170890093903,"Approved","OW360"
"2023-05-23 03:00",5.04470823965084,"Approved","OW360"
"2023-05-23 04:00",5.04370757836265,"Approved","OW360"
"2023-05-23 05:00",5.04470691707446,"Approved","OW360"
"2023-05-23 06:00",5.04770625578627,"Approved","OW360"
"2023-05-23 07:00",5.04770559449808,"Approved","OW360"
"2023-05-23 08:00",5.04870493320989,"Approved","OW360"
"2023-05-23 09:00",5.0497042719217,"Approved","OW360"
"2023-05-23 10:00",5.04970361063351,"Approved","OW360"
"2023-05-23 11:00",5.05070294934532,"Approved","OW360"
"2023-05-23 12:00",5.05170228805714,"Approved","OW360"
"2023-05-23 13:00",5.05270162676895,"Approved","OW360"
"2023-05-23 14:00",5.05370096548076,"Approved","OW360"
"2023-05-23 15:00",5.05470030419257,"Approved","OW360"
"2023-05-23 16:00",5.05669964290438,"Approved","OW360"
"2023-05-23 17:00",5.05669898161619,"Approved","OW360"
"2023-05-23 18:00",5.057698320328,"Approved","OW360"
"2023-05-23 19:00",5.06169765903981,"Approved","OW360"